Powrót do katalogu

USA 40 R/B DEB

AktywnyHEO
NORAD 44523·DEBRIS·🇺🇸 United States

Wystrzelony Aug 8, 1989 z Cape Canaveral Space Force Station

Loading…

Następne Przeloty (najbliższe 24 godziny)

TLE

ŚwieżeSource: Space-Track

Epoka: Sep 12, 2026, 22:14 UTC

1 44523U 89061BW  26255.92692618  .00003539  00000-0  36234-2 0  9995
2 44523  57.0036  90.8984 3079593 147.4184 236.1013  8.67217352 65226

Śledź USA 40 R/B DEB w czasie rzeczywistym z AllMySat

Download on the App Store